Location: Goodfare
(55.2420°N, 119.7689°W)
Time: 18:00:44
(UTC+00:00)

BlueWalker 3 - Visible Passes

Search period start: 10 June 2023 00:00
Search period end: 20 June 2023 00:00
Orbit: 493 x 513 km, 53.2° (Epoch: 09 June)

Date Brightness Start Highest point End Pass type
(mag) Time Alt. Az. Time Alt. Az. Time Alt. Az.
10 Jun 3.4 06:30:44 10° W 06:33:46 22° SW 06:36:05 14° S visible
11 Jun 3.4 06:10:17 10° W 06:13:18 22° SW 06:16:01 12° SSE visible
12 Jun 3.5 05:49:49 10° W 05:52:49 22° SW 05:55:48 10° SSE visible
